Powrót do katalogu

CZ-6A DEB

AktywnySSO
NORAD 54543·DEBRIS·🇨🇳 China

Wystrzelony Nov 11, 2022 z Taiyuan Satellite Launch Center

Loading…

Następne Przeloty (najbliższe 24 godziny)

TLE

ŚwieżeSource: Space-Track

Epoka: Sep 14, 2026, 03:53 UTC

1 54543U 22151KT  26257.16240932  .00001434  00000-0  33962-3 0  9999
2 54543  98.7282 336.2690 0110282  49.7375 311.3400 14.52073331202428

Śledź CZ-6A DEB w czasie rzeczywistym z AllMySat

Download on the App Store